^^
Grace C. Lehan Memorial Weather Station Historical Data
Daily Summary for June 23, 2022 Units:  English    Metric   Both
Daily Weekly Monthly Yearly
  High: Low: Average:
Temperature: 60.2 °F 58.9 °F 59.5 °F
Dew Point: 59.1 °F 57.8 °F 58.4 °F
Humidity: 96% 95% 96%
Wind Speed: 0.3mph 0mph 0mph
Wind Gust: 2mph - -
Wind- - ESE
Pressure: 30.02 in 29.97 in -
Precipitation: 0.00 in    
 
 
Tabular Data for June 23, 2022
Time Temperature Dew Point Pressure Wind Wind Speed Wind Gust Humidity Rainfall Rate (Hourly) solar
00:04 59.5 °F 58.1 °F 30.02 in Calm     95% 0.00 in 0 W/m2
00:09 59.6 °F 58.2 °F 30.02 in Calm     95.1% 0.00 in 0 W/m2
00:14 59.6 °F 58.5 °F 30.02 in Calm     95.9% 0.00 in 0 W/m2
00:19 59.7 °F 58.6 °F 30.01 in Calm     96% 0.00 in 0 W/m2
00:24 59.8 °F 58.7 °F 30.01 in Calm     96% 0.00 in 0 W/m2
00:29 59.8 °F 58.7 °F 30.01 in Calm     96% 0.00 in 0 W/m2
00:34 59.9 °F 58.8 °F 30.00 in Calm     96% 0.00 in 0 W/m2
00:39 59.9 °F 58.8 °F 30.00 in Calm     96% 0.00 in 0 W/m2
00:44 60 °F 58.8 °F 30.00 in Calm     96% 0.00 in 0 W/m2
00:49 60 °F 58.8 °F 30.00 in Calm     96% 0.00 in 0 W/m2
00:54 60 °F 58.9 °F 30.00 in Calm     96% 0.00 in 0 W/m2
00:59 60 °F 58.9 °F 30.00 in Calm     96% 0.00 in 0 W/m2
01:04 60.1 °F 58.9 °F 30.00 in Calm     96% 0.00 in 0 W/m2
01:09 60.1 °F 59 °F 30.00 in Calm     96% 0.00 in 0 W/m2
01:14 60.1 °F 59 °F 30.00 in Calm     96% 0.00 in 0 W/m2
01:19 60.2 °F 59 °F 30.00 in Calm     96% 0.00 in 0 W/m2
01:24 60.2 °F 59.1 °F 30.00 in Calm     96% 0.00 in 0 W/m2
01:29 60.2 °F 59.1 °F 30.00 in Calm     96% 0.00 in 0 W/m2
01:34 60.2 °F 59.1 °F 30.00 in Calm     96% 0.00 in 0 W/m2
01:39 60.2 °F 59.1 °F 30.00 in Calm     96% 0.00 in 0 W/m2
01:44 60.2 °F 59 °F 30.00 in Calm     96% 0.00 in 0 W/m2
01:49 60.1 °F 59 °F 29.99 in Calm     96% 0.00 in 0 W/m2
01:54 60 °F 58.9 °F 29.99 in Calm     96% 0.00 in 0 W/m2
01:59 59.9 °F 58.8 °F 29.99 in Calm     96% 0.00 in 0 W/m2
02:04 59.9 °F 58.7 °F 29.99 in Calm     96% 0.00 in 0 W/m2
02:09 59.8 °F 58.7 °F 29.99 in Calm     96% 0.00 in 0 W/m2
02:14 59.8 °F 58.7 °F 29.99 in Calm     96% 0.00 in 0 W/m2
02:19 59.8 °F 58.7 °F 29.99 in Calm     96% 0.00 in 0 W/m2
02:24 59.8 °F 58.7 °F 29.99 in Calm     96% 0.00 in 0 W/m2
02:29 59.8 °F 58.7 °F 29.99 in Calm     96% 0.00 in 0 W/m2
02:34 59.7 °F 58.6 °F 29.99 in Calm   1 mph 96% 0.00 in 0 W/m2
02:39 59.6 °F 58.5 °F 29.99 in Calm   1 mph 96% 0.00 in 0 W/m2
02:44 59.5 °F 58.4 °F 29.99 in Calm   1 mph 96% 0.00 in 0 W/m2
02:49 59.5 °F 58.4 °F 29.99 in Calm   1 mph 96% 0.00 in 0 W/m2
02:54 59.4 °F 58.3 °F 29.99 in Calm   1 mph 96% 0.00 in 0 W/m2
02:59 59.4 °F 58.3 °F 29.99 in ESE 0.3 mph 2 mph 96% 0.00 in 0 W/m2
03:04 59.4 °F 58.3 °F 29.99 in ESE 0.2 mph 2 mph 96% 0.00 in 0 W/m2
03:09 59.3 °F 58.2 °F 29.99 in ESE 0.3 mph 2 mph 96% 0.00 in 0 W/m2
03:14 59.3 °F 58.2 °F 29.99 in Calm   2 mph 96% 0.00 in 0 W/m2
03:19 59.2 °F 58 °F 29.99 in Calm   2 mph 96% 0.00 in 0 W/m2
03:24 59.1 °F 58 °F 29.99 in Calm   2 mph 96% 0.00 in 0 W/m2
03:29 59 °F 57.9 °F 29.99 in Calm   2 mph 96% 0.00 in 0 W/m2
03:34 59 °F 57.8 °F 29.99 in Calm   2 mph 96% 0.00 in 0 W/m2
03:39 58.9 °F 57.8 °F 29.99 in Calm     96% 0.00 in 0 W/m2
03:44 58.9 °F 57.8 °F 29.98 in Calm     96% 0.00 in 0 W/m2
03:49 58.9 °F 57.8 °F 29.98 in Calm     96% 0.00 in 0 W/m2
03:54 58.9 °F 57.8 °F 29.98 in Calm     96% 0.00 in 0 W/m2
03:59 58.9 °F 57.8 °F 29.98 in Calm     96% 0.00 in 0 W/m2
04:04 59 °F 57.9 °F 29.98 in Calm     96% 0.00 in 0 W/m2
04:09 59 °F 57.9 °F 29.98 in Calm     96% 0.00 in 0 W/m2
04:14 59.1 °F 57.9 °F 29.98 in Calm     96% 0.00 in 0 W/m2
04:19 59.1 °F 58 °F 29.98 in Calm     96% 0.00 in 0 W/m2
04:24 59.1 °F 58 °F 29.98 in Calm     96% 0.00 in 0 W/m2
04:29 59.1 °F 57.9 °F 29.98 in Calm     96% 0.00 in 0 W/m2
04:34 59 °F 57.9 °F 29.98 in Calm     96% 0.00 in 0 W/m2
04:39 59.1 °F 57.9 °F 29.98 in Calm     96% 0.00 in 0 W/m2
04:44 59.1 °F 58 °F 29.97 in Calm     96% 0.00 in 0 W/m2
04:49 59.1 °F 58 °F 29.97 in Calm     96% 0.00 in 0 W/m2
04:54 59.1 °F 58 °F 29.97 in Calm     96% 0.00 in 0 W/m2
04:59 59.2 °F 58 °F 29.97 in Calm     96% 0.00 in 0 W/m2
05:04 59.2 °F 58.1 °F 29.97 in Calm     96% 0.00 in 0 W/m2
05:09 59.2 °F 58.1 °F 29.97 in Calm     96% 0.00 in 0 W/m2
05:14 59.3 °F 58.1 °F 29.97 in Calm     96% 0.00 in 0 W/m2
05:19 59.3 °F 58.2 °F 29.97 in Calm     96% 0.00 in 0 W/m2
05:24 59.3 °F 58.2 °F 29.97 in Calm     96% 0.00 in 0 W/m2
05:29 59.4 °F 58.2 °F 29.97 in Calm     96% 0.00 in 0 W/m2
05:34 59.4 °F 58.3 °F 29.98 in Calm     96% 0.00 in 5 W/m2
05:39 59.4 °F 58.3 °F 29.97 in Calm     96% 0.00 in 5 W/m2
05:44 59.4 °F 58.3 °F 29.97 in Calm     96% 0.00 in 11 W/m2
05:49 59.5 °F 58.3 °F 29.97 in Calm     96% 0.00 in 11 W/m2
05:54 59.5 °F 58.4 °F 29.97 in Calm     96% 0.00 in 14 W/m2
05:59 59.5 °F 58.4 °F 29.97 in Calm     96% 0.00 in 16 W/m2
06:04 59.5 °F 58.4 °F 29.97 in Calm     96% 0.00 in 25 W/m2
06:08 59.5 °F 58.4 °F 29.97 in Calm     96% 0.00 in 25 W/m2
Hartford County Weather
Compliments of Weather Underground - 4 mb